Flag for Germany Weather past 2 weeks in Reutlingen, Baden-Württemberg, Germany

Now
61 °F

Clear.


Feels Like: 61 °F
Forecast: 49 / 68 °F
Wind: 2 mph from West

Location: Stuttgart-Echterdingen

Current Time: Sep 30, 2014 at 9:00:06 PM

Latest Report: Sep 30, 2014 at 8:20 PM


Visibility: 10 mi

Pressure: 30.30 "Hg

Humidity: 94%

Dew point: 59 °F

Location of ReutlingenLocation

Historic Weather in Reutlingen — Graph

°F

Reutlingen temperature yesterday

Maximum temperature yesterday: 77 °F (at 2:50 PM)
Minimum temperature yesterday: 48 °F (at 5:50 AM)
Average temperature yesterday: 62 °F

Past Weeks' High & Low Weather Summary

 TemperatureHumidityPressure
High77 °F (Sep 29, 2:50 PM)100% (Sep 16, 2:50 AM)30.39 "Hg (Sep 16, 2:50 AM)
Low39 °F (Sep 24, 3:20 AM)36% (Sep 29, 4:20 PM)29.89 "Hg (Sep 17, 2:50 PM)
Average59 °F83%30.11 "Hg
* Reported Sep 15 7:20 PM — Sep 30 7:50 PM, Reutlingen, Weather by CustomWeather, © 2014

Note: Actual official high and low records may vary slightly from our data, if they occured in-between our weather recording intervals... More about our weather records

Advertising

Reutlingen weather history for previous 24 hours

 ConditionsComfort  
Time TempWeatherWind HumidityBarometerVisibility
7:50 PM
Sep 30
63 °FBroken clouds.2 mph83%30.30 "HgN/A
7:20 PM63 °FBroken clouds.No wind88%30.30 "HgN/A
6:50 PM64 °FBroken clouds.2 mph83%30.30 "HgN/A
6:20 PM64 °FBroken clouds.3 mph83%30.30 "HgN/A
5:50 PM64 °FBroken clouds.5 mph83%30.30 "HgN/A
5:20 PM64 °FBroken clouds.5 mph88%30.30 "HgN/A
4:50 PM64 °FRain showers. Broken clouds.6 mph88%30.30 "HgN/A
4:20 PM66 °FBroken clouds.5 mph78%30.30 "HgN/A
3:50 PM66 °FBroken clouds.3 mph78%30.30 "HgN/A
3:20 PM66 °FBroken clouds.1 mph78%30.30 "HgN/A
2:50 PM66 °FPartly sunny.2 mph83%30.30 "HgN/A
2:20 PM64 °FPartly sunny.2 mph83%30.30 "HgN/A
1:50 PM64 °FPartly sunny.3 mph83%30.30 "HgN/A
1:20 PM64 °FPartly sunny.3 mph83%30.33 "HgN/A
12:50 PM64 °FPartly sunny.2 mph83%30.33 "HgN/A
12:20 PM63 °FPartly sunny.2 mph88%30.33 "HgN/A
11:50 AM63 °FRain. Partly sunny.2 mph83%30.33 "HgN/A
11:20 AM63 °FPartly sunny.2 mph88%30.33 "HgN/A
10:50 AM63 °FLight rain. Partly sunny.2 mph88%30.33 "HgN/A
10:20 AM63 °FLight rain. Partly sunny.2 mph88%30.30 "HgN/A
9:50 AM63 °FSunny.2 mph88%30.30 "Hg10 mi
9:20 AM63 °FSunny.2 mph88%30.30 "Hg10 mi
8:50 AM61 °FSunny.2 mph94%30.30 "Hg10 mi
8:20 AM59 °FSunny.2 mph94%30.30 "Hg10 mi
7:50 AM59 °FLight rain. Passing clouds.1 mph94%30.30 "HgN/A
7:20 AM59 °FLight rain. Passing clouds.2 mph94%30.30 "HgN/A
6:50 AM59 °FClear.1 mph94%30.30 "Hg10 mi
6:20 AM59 °FClear.1 mph94%30.30 "Hg10 mi
5:50 AM59 °FClear.2 mph94%30.30 "Hg10 mi
5:20 AM59 °FClear.2 mph94%30.27 "Hg10 mi
4:50 AM59 °FClear.1 mph88%30.27 "Hg10 mi
4:20 AM59 °FClear.1 mph88%30.27 "Hg10 mi
3:50 AM59 °FClear.1 mph88%30.27 "Hg10 mi
3:20 AM59 °FClear.1 mph88%30.30 "Hg10 mi
2:50 AM59 °FClear.1 mph88%30.27 "Hg10 mi
2:20 AM59 °FClear.3 mph94%30.30 "Hg10 mi
1:50 AM61 °FClear.3 mph83%30.30 "Hg10 mi
1:20 AM63 °FClear.1 mph77%30.30 "Hg10 mi
12:50 AM63 °FClear.1 mph77%30.30 "Hg10 mi
12:20 AM63 °FClear.2 mph77%30.30 "Hg10 mi
11:50 PM
Sep 29
64 °FClear.1 mph68%30.30 "Hg10 mi
11:20 PM63 °FClear.5 mph73%30.30 "Hg10 mi
10:50 PM64 °FClear.2 mph68%30.30 "Hg10 mi
10:20 PM64 °FClear.3 mph73%30.30 "Hg10 mi
9:50 PM64 °FClear.2 mph73%30.30 "Hg10 mi
9:20 PM64 °FClear.1 mph73%30.27 "Hg10 mi
Weather by CustomWeather, © 2014

See weather overviewHow to use our weather pages